Location: Rogalle
(42.8890°N, 1.1916°E)
Time: 00:56:44
(UTC+00:00)

MOS 1 Rocket - Pass Details

Date: 13 December 2025
Orbit: 609 x 814 km, 97.4° (Epoch: 19 January)

Event Time Altitude Azimuth Distance (km) Brightness Sun altitude
Rises 17:02:26 0° 144° (SE) 3,122 6.5 -7.5°
Reaches altitude 10° 17:04:46 10° 137° (SE) 2,238 5.7 -7.9°
Maximum altitude 17:09:20 39° 69° (ENE) 1,143 3.9 -8.6°
Drops below altitude 10° 17:14:08 10° 3° (N) 2,359 5.8 -9.4°
Sets 17:16:39 0° 356° (N) 3,314 6.6 -9.9°
